YAOGAN-23

Last updated on Mon Oct 14 2024 00:02:24 GMT+0000 (Coordinated Universal Time)

1 40305U 14071A 24287.43848193 .00178677 00000+0 13741-2 0 9991 2 40305 97.6903 281.9709 0004317 97.2755 262.8998 15.71471560550814
UTC large
Height (km)
Speed (km/s)
/
Latitude / Longitude
Inclination (degrees)
Orbital Period (minutes)
Azimuth
Elevation
Range (km)
Doppler Factor

Next 0 passes for location: London (51.5072 / 0.1276)

Sorry there are no passes over London.